FW9002 Weather Reports


time (UTC)temp
C
wind
direction
speed
KPH
gust
KPH
rain 1hr
cm
rain 24hr
cm
rain mn
cm
humidity
%
barometer
mb
20260902044158 27 52 0.0 0.0 0.00 0.00 0.00 56 1014.8
20260902043652 28 52 0.0 0.0 0.00 0.00 0.00 56 1015.0
20260902043148 28 52 0.0 0.0 0.00 0.00 0.00 55 1015.0
20260902042647 28 40 3.2 3.2 0.00 0.00 0.00 53 1014.7
20260902042143 28 305 0.0 0.0 0.00 0.00 0.00 51 1014.7
20260902041642 28 305 0.0 1.6 0.00 0.00 0.00 50 1014.9
20260902041137 28 305 0.0 0.0 0.00 0.00 0.00 50 1014.9
20260902040636 28 270 1.6 3.2 0.00 0.00 0.00 50 1014.7
20260902040132 29 262 3.2 3.2 0.00 0.00 0.00 49 1014.8
20260902035630 29 277 1.6 1.6 0.00 0.00 0.00 50 1014.6
20260902035126 29 294 0.0 1.6 0.00 0.00 0.00 49 1014.6
20260902034625 29 284 1.6 1.6 0.00 0.00 0.00 49 1014.6
20260902034119 29 290 1.6 3.2 0.00 0.00 0.00 49 1014.3
20260902033618 29 258 0.0 0.0 0.00 0.00 0.00 50 1014.3
20260902033113 29 273 0.0 0.0 0.00 0.00 0.00 50 1014.1
20260902032612 29 266 0.0 0.0 0.00 0.00 0.00 49 1013.9
20260902032107 29 287 1.6 1.6 0.00 0.00 0.00 49 1014.0
20260902031607 29 257 0.0 0.0 0.00 0.00 0.00 49 1013.8
20260902031103 29 257 0.0 0.0 0.00 0.00 0.00 49 1013.6
20260902030558 29 294 1.6 1.6 0.00 0.00 0.00 49 1013.6
20260902030058 30 295 1.6 1.6 0.00 0.00 0.00 48 1013.4
20260902025558 30 296 0.0 0.0 0.00 0.00 0.00 48 1013.1
20260902025053 30 300 0.0 0.0 0.00 0.00 0.00 48 1013.0
20260902024549 30 250 1.6 1.6 0.00 0.00 0.00 47 1013.2
20260902024048 30 288 0.0 0.0 0.00 0.00 0.00 47 1013.1
20260902023544 30 289 0.0 0.0 0.00 0.00 0.00 46 1013.2
20260902023039 30 303 0.0 0.0 0.00 0.00 0.00 45 1013.1
20260902022533 30 285 3.2 3.2 0.00 0.00 0.00 45 1013.0
20260902022029 30 301 3.2 3.2 0.00 0.00 0.00 43 1012.9
20260902021525 30 293 1.6 1.6 0.00 0.00 0.00 43 1012.7
20260902021025 30 302 4.8 4.8 0.00 0.00 0.00 42 1012.7
20260902020520 31 300 1.6 1.6 0.00 0.00 0.00 42 1012.6
20260902020016 31 302 1.6 1.6 0.00 0.00 0.00 41 1012.7
20260902015512 31 281 3.2 3.2 0.00 0.00 0.00 41 1012.8
20260902015007 31 296 1.6 1.6 0.00 0.00 0.00 41 1012.6
20260902014503 31 286 4.8 4.8 0.00 0.00 0.00 40 1012.5
20260902013958 31 309 3.2 3.2 0.00 0.00 0.00 40 1012.7
20260902013453 31 280 4.8 4.8 0.00 0.00 0.00 40 1012.4
20260902012948 31 260 3.2 3.2 0.00 0.00 0.00 41 1012.5
20260902012444 31 329 3.2 3.2 0.00 0.00 0.00 40 1012.4
20260902011939 32 302 6.4 9.7 0.00 0.00 0.00 40 1012.5
20260902011435 32 11 1.6 1.6 0.00 0.00 0.00 41 1012.5
20260902010934 32 302 1.6 1.6 0.00 0.00 0.00 41 1012.5
20260902010429 32 304 6.4 9.7 0.00 0.00 0.00 40 1012.2
20260902005928 32 299 6.4 8.0 0.00 0.00 0.00 40 1012.2
20260902005427 33 296 4.8 4.8 0.00 0.00 0.00 38 1012.4
20260902004923 33 324 4.8 8.0 0.00 0.00 0.00 38 1012.6
20260902004423 33 336 1.6 1.6 0.00 0.00 0.00 38 1012.5
20260902003918 33 255 3.2 4.8 0.00 0.00 0.00 38 1012.4
20260902003413 33 359 3.2 3.2 0.00 0.00 0.00 37 1012.5
20260902002909 33 313 4.8 4.8 0.00 0.00 0.00 36 1012.5
20260902002409 33 350 6.4 8.0 0.00 0.00 0.00 36 1012.7
20260902001903 33 321 6.4 9.7 0.00 0.00 0.00 36 1012.7
20260902001358 33 304 4.8 4.8 0.00 0.00 0.00 36 1012.6
20260902000853 34 302 3.2 3.2 0.00 0.00 0.00 35 1012.5
20260902000353 35 274 3.2 4.8 0.00 0.00 0.00 34 1012.7
20260901235848 34 339 0.0 0.0 0.00 0.00 0.00 35 1012.5
20260901235343 34 249 3.2 4.8 0.00 0.00 0.00 35 1012.8
20260901234838 34 297 6.4 9.7 0.00 0.00 0.00 34 1012.6
20260901234332 34 303 6.4 8.0 0.00 0.00 0.00 34 1012.8
20260901233827 34 292 3.2 3.2 0.00 0.00 0.00 34 1012.9
20260901233323 34 306 4.8 4.8 0.00 0.00 0.00 35 1012.9
20260901232819 35 288 4.8 8.0 0.00 0.00 0.00 34 1012.9
20260901232313 35 335 3.2 8.0 0.00 0.00 0.00 34 1013.1
20260901231809 35 320 3.2 4.8 0.00 0.00 0.00 35 1013.0
20260901231305 34 254 4.8 8.0 0.00 0.00 0.00 35 1013.0
20260901230801 35 285 4.8 4.8 0.00 0.00 0.00 34 1013.1
20260901230300 35 18 6.4 9.7 0.00 0.00 0.00 35 1013.0
20260901225756 35 345 4.8 4.8 0.00 0.00 0.00 35 1013.0
20260901225250 35 270 4.8 4.8 0.00 0.00 0.00 36 1013.0
20260901224746 35 5 1.6 1.6 0.00 0.00 0.00 35 1013.1
20260901224242 35 349 1.6 1.6 0.00 0.00 0.00 36 1013.0
20260901223738 35 339 1.6 1.6 0.00 0.00 0.00 35 1013.2
20260901223238 35 299 3.2 3.2 0.00 0.00 0.00 34 1013.3
20260901222734 35 45 1.6 1.6 0.00 0.00 0.00 34 1013.3
20260901222230 35 273 4.8 3.2 0.00 0.00 0.00 33 1013.3
20260901221726 35 258 1.6 1.6 0.00 0.00 0.00 32 1013.4
20260901221222 34 324 6.4 9.7 0.00 0.00 0.00 34 1013.5
20260901220721 35 298 8.0 9.7 0.00 0.00 0.00 34 1013.5
20260901220221 35 305 6.4 8.0 0.00 0.00 0.00 33 1013.4
20260901215720 35 262 1.6 1.6 0.00 0.00 0.00 34 1013.6
20260901215214 34 288 8.0 9.7 0.00 0.00 0.00 34 1013.6
20260901214712 34 206 4.8 4.8 0.00 0.00 0.00 33 1013.6
20260901214207 34 15 3.2 3.2 0.00 0.00 0.00 34 1013.8
20260901213706 34 49 3.2 4.8 0.00 0.00 0.00 34 1013.8
20260901213201 34 16 3.2 3.2 0.00 0.00 0.00 36 1014.0
20260901212700 35 8 0.0 0.0 0.00 0.00 0.00 35 1014.1
20260901212157 35 284 3.2 3.2 0.00 0.00 0.00 34 1014.5
20260901211656 34 24 1.6 1.6 0.00 0.00 0.00 35 1014.4
20260901211153 34 309 3.2 4.8 0.00 0.00 0.00 36 1014.5
20260901210648 34 314 6.4 8.0 0.00 0.00 0.00 35 1014.2
20260901210144 34 297 4.8 8.0 0.00 0.00 0.00 36 1014.5
20260901205640 33 5 3.2 3.2 0.00 0.00 0.00 37 1014.5
20260901205140 34 41 4.8 4.8 0.00 0.00 0.00 36 1014.5
20260901204635 34 295 6.4 9.7 0.00 0.00 0.00 35 1014.7
20260901204130 34 309 4.8 4.8 0.00 0.00 0.00 36 1014.8
20260901203626 34 258 0.0 1.6 0.00 0.00 0.00 37 1015.2
20260901203125 34 13 1.6 1.6 0.00 0.00 0.00 37 1014.8
20260901202620 33 336 1.6 1.6 0.00 0.00 0.00 35 1014.9
20260901202116 33 300 1.6 1.6 0.00 0.00 0.00 35 1015.0
20260901201612 33 19 4.8 4.8 0.00 0.00 0.00 35 1015.4
20260901201111 33 294 4.8 4.8 0.00 0.00 0.00 36 1015.3
20260901200610 33 248 3.2 3.2 0.00 0.00 0.00 35 1015.2
20260901200105 33 262 1.6 3.2 0.00 0.00 0.00 37 1015.5
20260901195603 33 299 3.2 3.2 0.00 0.00 0.00 37 1015.3
20260901195103 33 356 1.6 1.6 0.00 0.00 0.00 37 1015.4
20260901194558 33 285 3.2 3.2 0.00 0.00 0.00 38 1015.4
20260901194054 33 233 3.2 3.2 0.00 0.00 0.00 37 1015.5
20260901193548 33 263 6.4 9.7 0.00 0.00 0.00 36 1015.7
20260901193043 32 208 1.6 1.6 0.00 0.00 0.00 37 1015.7
20260901192538 32 354 1.6 1.6 0.00 0.00 0.00 37 1016.0
20260901192033 32 230 4.8 8.0 0.00 0.00 0.00 37 1015.8
20260901191524 33 318 3.2 4.8 0.00 0.00 0.00 40 1015.8
20260901191020 32 166 0.0 0.0 0.00 0.00 0.00 37 1015.9
20260901190515 33 170 4.8 8.0 0.00 0.00 0.00 36 1016.0
20260901190014 32 96 1.6 1.6 0.00 0.00 0.00 40 1016.0
20260901185513 32 261 4.8 4.8 0.00 0.00 0.00 37 1016.1
20260901185012 31 63 1.6 1.6 0.00 0.00 0.00 40 1016.2
20260901184508 31 146 3.2 3.2 0.00 0.00 0.00 38 1016.1
20260901184003 32 185 4.8 4.8 0.00 0.00 0.00 38 1016.4
20260901183457 32 250 3.2 4.8 0.00 0.00 0.00 38 1016.3
20260901182953 32 213 6.4 8.0 0.00 0.00 0.00 39 1016.3
20260901182449 32 358 4.8 4.8 0.00 0.00 0.00 41 1016.1
20260901181948 32 306 4.8 4.8 0.00 0.00 0.00 39 1016.2
20260901181443 31 60 1.6 1.6 0.00 0.00 0.00 39 1016.3
20260901180942 31 64 0.0 1.6 0.00 0.00 0.00 40 1016.2
20260901180442 31 88 1.6 1.6 0.00 0.00 0.00 42 1016.2
20260901175940 32 178 1.6 1.6 0.00 0.00 0.00 39 1016.7
20260901175435 32 114 3.2 3.2 0.00 0.00 0.00 38 1016.4
20260901174930 32 78 1.6 1.6 0.00 0.00 0.00 41 1016.4
20260901174426 31 76 1.6 1.6 0.00 0.00 0.00 39 1016.6
20260901173921 31 63 1.6 3.2 0.00 0.00 0.00 42 1016.7
20260901173416 31 172 0.0 0.0 0.00 0.00 0.00 41 1016.7
20260901172912 31 152 1.6 1.6 0.00 0.00 0.00 43 1016.7
20260901172407 30 126 3.2 3.2 0.00 0.00 0.00 42 1016.7
20260901171905 31 173 3.2 3.2 0.00 0.00 0.00 42 1016.7
20260901171404 30 246 1.6 1.6 0.00 0.00 0.00 42 1016.4
20260901170903 31 177 4.8 4.8 0.00 0.00 0.00 43 1016.9
20260901170358 30 80 1.6 1.6 0.00 0.00 0.00 44 1016.8
20260901165857 30 129 1.6 1.6 0.00 0.00 0.00 45 1016.8
20260901165352 30 86 1.6 1.6 0.00 0.00 0.00 45 1016.7
20260901164849 30 91 0.0 0.0 0.00 0.00 0.00 47 1016.9
20260901164344 30 143 1.6 1.6 0.00 0.00 0.00 46 1016.8
20260901163843 30 89 0.0 0.0 0.00 0.00 0.00 50 1016.6
20260901163339 29 89 0.0 0.0 0.00 0.00 0.00 52 1016.6
20260901162834 29 89 1.6 1.6 0.00 0.00 0.00 51 1016.8
20260901162332 28 110 1.6 1.6 0.00 0.00 0.00 54 1016.8
20260901161832 28 90 0.0 0.0 0.00 0.00 0.00 54 1016.4
20260901161326 28 127 1.6 1.6 0.00 0.00 0.00 54 1016.6
20260901160822 27 69 0.0 0.0 0.00 0.00 0.00 56 1016.7
20260901160318 28 105 3.2 4.8 0.00 0.00 0.00 57 1016.6
20260901155817 27 131 3.2 3.2 0.00 0.00 0.00 56 1016.9
20260901155312 27 91 1.6 1.6 0.00 0.00 0.00 58 1016.7
20260901154809 28 88 3.2 3.2 0.00 0.00 0.00 56 1016.7
20260901154307 28 119 1.6 1.6 0.00 0.00 0.00 56 1016.9
20260901153802 27 114 1.6 1.6 0.00 0.00 0.00 58 1016.7
20260901153302 27 156 1.6 3.2 0.00 0.00 0.00 56 1016.9
20260901152801 27 119 1.6 3.2 0.00 0.00 0.00 58 1016.7
20260901152301 27 129 1.6 1.6 0.00 0.00 0.00 59 1016.8
20260901151756 27 92 0.0 0.0 0.00 0.00 0.00 61 1016.6
20260901151250 27 92 1.6 1.6 0.00 0.00 0.00 62 1016.8
20260901150750 26 91 1.6 1.6 0.00 0.00 0.00 64 1016.7
20260901150248 26 83 0.0 0.0 0.00 0.00 0.00 68 1016.9
20260901145746 25 107 0.0 0.0 0.00 0.00 0.00 66 1016.9
20260901145245 25 87 0.0 0.0 0.00 0.00 0.00 69 1016.8
20260901144741 25 84 1.6 1.6 0.00 0.00 0.00 69 1016.9
20260901144237 25 80 1.6 1.6 0.00 0.00 0.00 70 1016.9
20260901143732 24 98 1.6 1.6 0.00 0.00 0.00 72 1016.7
20260901143228 24 76 3.2 3.2 0.00 0.00 0.00 72 1016.7
20260901142724 24 104 0.0 0.0 0.00 0.00 0.00 73 1016.8
20260901142224 23 85 1.6 1.6 0.00 0.00 0.00 77 1016.7
20260901141719 23 85 1.6 1.6 0.00 0.00 0.00 77 1016.7
20260901141219 23 88 1.6 1.6 0.00 0.00 0.00 79 1016.4
20260901140718 23 98 3.2 3.2 0.00 0.00 0.00 79 1016.3
20260901140216 22 106 1.6 1.6 0.00 0.00 0.00 81 1016.3
20260901135712 22 102 3.2 3.2 0.00 0.00 0.00 82 1016.3
20260901135206 22 82 3.2 3.2 0.00 0.00 0.00 82 1016.6
20260901134702 21 90 1.6 1.6 0.00 0.00 0.00 84 1016.2
20260901134157 21 76 1.6 1.6 0.00 0.00 0.00 86 1016.8
20260901133656 21 94 1.6 1.6 0.00 0.00 0.00 88 1016.3
20260901133155 20 112 1.6 1.6 0.00 0.00 0.00 90 1016.3
20260901132654 20 114 1.6 1.6 0.00 0.00 0.00 91 1016.1
20260901132149 20 114 0.0 0.0 0.00 0.00 0.00 92 1016.3
20260901131644 20 115 0.0 0.0 0.00 0.00 0.00 91 1016.2
20260901131138 20 115 0.0 0.0 0.00 0.00 0.00 91 1016.0
20260901130633 20 115 0.0 0.0 0.00 0.00 0.00 91 1016.0
20260901130132 20 114 0.0 0.0 0.00 0.00 0.00 91 1016.1
20260901125630 20 114 1.6 0.0 0.00 0.00 0.00 90 1015.6
20260901125125 20 115 0.0 0.0 0.00 0.00 0.00 90 1015.7
20260901124620 20 115 0.0 0.0 0.00 0.00 0.00 90 1015.9
20260901124114 20 115 0.0 0.0 0.00 0.00 0.00 89 1015.5
20260901123615 20 115 0.0 0.0 0.00 0.00 0.00 89 1015.3
20260901123114 20 115 0.0 0.0 0.00 0.00 0.00 88 1015.5
20260901122612 20 115 0.0 0.0 0.00 0.00 0.00 88 1015.4
20260901122107 20 115 0.0 0.0 0.00 0.00 0.00 88 1015.5
20260901121602 20 115 0.0 0.0 0.00 0.00 0.00 88 1015.5
20260901121057 21 115 0.0 0.0 0.00 0.00 0.00 88 1015.4
20260901120556 21 115 0.0 0.0 0.00 0.00 0.00 87 1015.5
20260901120052 20 116 1.6 1.6 0.00 0.00 0.00 88 1015.4
20260901115547 20 110 1.6 3.2 0.00 0.00 0.00 89 1015.4
20260901115044 20 95 1.6 1.6 0.00 0.00 0.00 90 1015.3
20260901114540 20 95 1.6 1.6 0.00 0.00 0.00 90 1015.2
20260901114039 20 94 0.0 0.0 0.00 0.00 0.00 90 1015.3
20260901113538 20 94 1.6 1.6 0.00 0.00 0.00 91 1015.3
20260901113033 20 94 0.0 0.0 0.00 0.00 0.00 91 1015.2
20260901112527 20 93 0.0 0.0 0.00 0.00 0.00 91 1015.6
20260901112023 20 93 0.0 0.0 0.00 0.00 0.00 90 1015.3
20260901111521 20 93 0.0 0.0 0.00 0.00 0.00 90 1015.3
20260901111020 20 93 0.0 0.0 0.00 0.00 0.00 91 1015.3
20260901110516 20 93 0.0 0.0 0.00 0.00 0.00 91 1015.5
20260901110011 20 93 0.0 0.0 0.00 0.00 0.00 91 1015.4
20260901105507 20 93 0.0 0.0 0.00 0.00 0.00 90 1015.3
20260901105007 20 93 0.0 0.0 0.00 0.00 0.00 90 1015.4
20260901104503 20 93 0.0 0.0 0.00 0.00 0.00 90 1015.5
20260901103957 20 93 0.0 0.0 0.00 0.00 0.00 90 1015.5
20260901103452 20 93 0.0 0.0 0.00 0.00 0.00 89 1015.4
20260901102948 20 93 0.0 0.0 0.00 0.00 0.00 89 1015.0
20260901102448 21 93 0.0 0.0 0.00 0.00 0.00 89 1015.0
20260901101942 21 93 0.0 0.0 0.00 0.00 0.00 89 1015.3
20260901101437 21 93 0.0 0.0 0.00 0.00 0.00 89 1015.4
20260901100932 21 93 0.0 0.0 0.00 0.00 0.00 89 1015.4
20260901100427 21 93 0.0 0.0 0.00 0.00 0.00 89 1014.9
20260901095926 21 93 0.0 0.0 0.00 0.00 0.00 88 1015.2
20260901095425 21 93 0.0 0.0 0.00 0.00 0.00 88 1014.9
20260901094917 21 93 0.0 0.0 0.00 0.00 0.00 89 1015.2
20260901094418 21 93 0.0 0.0 0.00 0.00 0.00 89 1015.2
20260901093912 21 93 1.6 1.6 0.00 0.00 0.00 88 1015.2
20260901093411 21 93 0.0 0.0 0.00 0.00 0.00 88 1015.2
20260901092907 21 93 0.0 0.0 0.00 0.00 0.00 87 1014.9
20260901092403 21 93 0.0 0.0 0.00 0.00 0.00 87 1014.8
20260901091859 21 93 0.0 0.0 0.00 0.00 0.00 87 1015.2
20260901091358 21 93 0.0 0.0 0.00 0.00 0.00 87 1014.9
20260901090853 21 93 0.0 0.0 0.00 0.00 0.00 88 1015.2
20260901090348 21 93 0.0 0.0 0.00 0.00 0.00 87 1015.2
20260901085844 21 93 1.6 1.6 0.00 0.00 0.00 87 1015.2
20260901085339 21 93 0.0 0.0 0.00 0.00 0.00 87 1015.2
20260901084836 21 93 0.0 0.0 0.00 0.00 0.00 85 1015.2
20260901084332 21 94 0.0 0.0 0.00 0.00 0.00 83 1015.4
20260901083827 21 93 0.0 1.6 0.00 0.00 0.00 83 1015.0
20260901083327 21 92 0.0 1.6 0.00 0.00 0.00 84 1015.3
20260901082825 21 92 0.0 0.0 0.00 0.00 0.00 86 1015.3
20260901082321 21 92 0.0 0.0 0.00 0.00 0.00 87 1015.3
20260901081816 21 92 0.0 0.0 0.00 0.00 0.00 86 1015.0
20260901081316 21 92 0.0 0.0 0.00 0.00 0.00 86 1015.3
20260901080811 21 92 0.0 0.0 0.00 0.00 0.00 87 1015.2
20260901080311 21 92 0.0 0.0 0.00 0.00 0.00 88 1015.3
20260901075804 21 92 0.0 0.0 0.00 0.00 0.00 87 1015.3
20260901075259 21 92 0.0 0.0 0.00 0.00 0.00 87 1015.4
20260901074754 21 92 0.0 0.0 0.00 0.00 0.00 86 1015.3
20260901074249 21 92 0.0 0.0 0.00 0.00 0.00 86 1015.2
20260901073745 21 92 0.0 0.0 0.00 0.00 0.00 86 1015.2
20260901073240 22 92 0.0 0.0 0.00 0.00 0.00 86 1015.5
20260901072735 22 92 0.0 0.0 0.00 0.00 0.00 85 1015.5
20260901072230 22 92 0.0 0.0 0.00 0.00 0.00 84 1015.5
20260901071730 22 92 0.0 0.0 0.00 0.00 0.00 84 1015.3
20260901071225 22 92 0.0 0.0 0.00 0.00 0.00 83 1015.4
20260901070724 22 92 0.0 0.0 0.00 0.00 0.00 84 1015.5
20260901070219 22 92 0.0 0.0 0.00 0.00 0.00 85 1015.4
20260901065719 22 92 0.0 0.0 0.00 3.73 3.73 84 1015.3
20260901065214 21 92 0.0 0.0 0.00 3.73 3.73 86 1015.3
20260901064710 21 92 0.0 0.0 0.00 3.73 3.73 85 1015.4
20260901064206 22 92 0.0 0.0 0.00 3.73 3.73 85 1015.6
20260901063703 22 92 0.0 0.0 0.00 3.73 3.73 84 1015.7
20260901063159 22 92 0.0 0.0 0.00 3.73 3.73 85 1015.4
20260901062654 22 92 0.0 0.0 0.00 3.73 3.73 85 1015.6
20260901062150 22 92 0.0 0.0 0.00 3.73 3.73 84 1015.6
20260901061646 22 92 0.0 0.0 0.00 3.73 3.73 84 1015.5
20260901061146 22 92 0.0 0.0 0.00 3.73 3.73 84 1015.6
20260901060641 22 92 0.0 0.0 0.00 3.73 3.73 85 1015.5
20260901060136 22 92 0.0 0.0 0.00 3.73 3.73 83 1015.5
20260901055631 22 92 0.0 0.0 0.00 3.73 3.73 82 1015.4
20260901055128 22 92 0.0 0.0 0.00 3.73 3.73 82 1015.5
20260901054625 22 92 0.0 0.0 0.00 3.73 3.73 82 1015.5
20260901054121 22 71 0.0 0.0 0.00 3.73 3.73 84 1015.4
20260901053616 22 71 0.0 0.0 0.00 3.73 3.73 83 1015.3
20260901053114 22 71 0.0 0.0 0.00 3.73 3.73 82 1015.4
20260901052612 22 71 0.0 0.0 0.00 3.73 3.73 82 1015.4
20260901052108 22 71 0.0 0.0 0.00 3.73 3.73 80 1015.3
20260901051607 22 71 0.0 0.0 0.00 3.73 3.73 79 1015.5
20260901051106 23 71 0.0 0.0 0.00 3.73 3.73 78 1015.6
20260901050601 23 71 0.0 0.0 0.00 3.73 3.73 78 1015.3
20260901050056 23 71 0.0 0.0 0.00 3.73 3.73 77 1015.3
20260901045551 23 70 0.0 0.0 0.00 3.73 3.73 77 1015.5
20260901045046 23 70 1.6 1.6 0.00 3.73 3.73 76 1015.5
20260901044542 23 70 0.0 0.0 0.00 3.73 3.73 76 1015.9